When you browse on this site, cookies collect data to enhance your experience and personalize the content and advertising you see.
Visit our Privacy Policy to learn more. By continuing to use the site, you agree to this use of cookies and data.
  • In Slovakia
  • List of Countries
  • For 7 days
  • Water Temperature
  • Satellite Maps
  • Weather Map
  • Weather Widgets
  • user-avatar
    Login

    Hourly Weather Megri

    Today, 23 March, Saturday

    Time Temperature Precipitation Wind Pressure Humidity
    00:00 +2°C° 0 mm 1 mps 620 mmHg 78%
    01:00 +1°C° 0 mm 1 mps 620 mmHg 79%
    02:00 +1°C° 0 mm 1 mps 620 mmHg 81%
    03:00 0°C° 0 mm 1 mps 620 mmHg 82%
    04:00 -1°C° 0 mm 0 mps 619 mmHg 81%
    05:00 -1°C° 0 mm 0 mps 619 mmHg 81%
    06:00 -1°C° 0 mm 0 mps 619 mmHg 80%
    07:00 +2°C° 0 mm 1 mps 620 mmHg 75%
    08:00 +3°C° 0 mm 1 mps 620 mmHg 70%
    09:00 +5°C° 0 mm 1 mps 620 mmHg 64%
    10:00 +4°C° 0 mm 2 mps 620 mmHg 64%
    11:00 +5°C° 0 mm 2 mps 620 mmHg 64%
    12:00 +5°C° 0 mm 3 mps 619 mmHg 63%
    13:00 +5°C° 0 mm 3 mps 619 mmHg 61%
    14:00 +7°C° 0 mm 3 mps 619 mmHg 59%
    15:00 +7°C° 0 mm 3 mps 618 mmHg 57%
    16:00 +7°C° 0 mm 3 mps 618 mmHg 56%
    17:00 +6°C° 0 mm 2 mps 618 mmHg 56%
    18:00 +5°C° 0 mm 2 mps 617 mmHg 55%
    19:00 +5°C° 0.1 mm 2 mps 617 mmHg 57%
    20:00 +6°C° 0.1 mm 1 mps 617 mmHg 59%
    21:00 +5°C° 0.1 mm 1 mps 618 mmHg 61%
    22:00 +5°C° 0.1 mm 1 mps 617 mmHg 63%
    23:00 +5°C° 0.1 mm 1 mps 617 mmHg 64%

    Tomorrow, 24 March, Sunday

    Time Temperature Precipitation Wind Pressure Humidity
    00:00 +5°C° 0.1 mm 1 mps 617 mmHg 66%
    01:00 +3°C° 0 mm 2 mps 617 mmHg 68%
    02:00 +3°C° 0 mm 2 mps 616 mmHg 71%
    03:00 +3°C° 0 mm 2 mps 616 mmHg 73%
    04:00 +2°C° 0 mm 2 mps 616 mmHg 75%
    05:00 +2°C° 0 mm 2 mps 615 mmHg 77%
    06:00 +2°C° 0 mm 2 mps 615 mmHg 79%
    07:00 +3°C° 0 mm 2 mps 615 mmHg 76%
    08:00 +4°C° 0 mm 2 mps 616 mmHg 72%
    09:00 +5°C° 0 mm 2 mps 616 mmHg 68%
    10:00 +6°C° 0 mm 2 mps 615 mmHg 65%
    11:00 +7°C° 0 mm 3 mps 615 mmHg 63%
    12:00 +7°C° 0 mm 3 mps 615 mmHg 60%
    13:00 +7°C° 0.3 mm 3 mps 614 mmHg 61%
    14:00 +7°C° 0.3 mm 3 mps 614 mmHg 63%
    15:00 +6°C° 0.3 mm 4 mps 613 mmHg 64%
    16:00 +5°C° 1.1 mm 4 mps 613 mmHg 69%
    17:00 +4°C° 1.1 mm 3 mps 613 mmHg 73%
    18:00 +4°C° 1.1 mm 3 mps 613 mmHg 78%
    19:00 +3°C° 1 mm 3 mps 613 mmHg 80%
    20:00 +3°C° 1 mm 3 mps 613 mmHg 81%
    21:00 +4°C° 1 mm 2 mps 614 mmHg 83%
    22:00 +3°C° 0.7 mm 2 mps 614 mmHg 84%
    23:00 +3°C° 0.7 mm 2 mps 614 mmHg 85%

    Day after tomorrow, 25 March, Monday

    Time Temperature Precipitation Wind Pressure Humidity
    00:00 +3°C° 0.7 mm 2 mps 614 mmHg 86%
    01:00 +2°C° 0.2 mm 2 mps 614 mmHg 86%
    02:00 +2°C° 0.2 mm 2 mps 613 mmHg 87%
    03:00 +2°C° 0.2 mm 2 mps 613 mmHg 87%
    04:00 0°C° 0.1 mm 3 mps 613 mmHg 87%
    05:00 0°C° 0.1 mm 3 mps 613 mmHg 88%
    06:00 0°C° 0.1 mm 3 mps 613 mmHg 88%
    07:00 0°C° 0.3 mm 3 mps 614 mmHg 86%
    08:00 0°C° 0.3 mm 4 mps 614 mmHg 84%
    09:00 0°C° 0.3 mm 4 mps 614 mmHg 82%
    10:00 +1°C° 0.2 mm 4 mps 614 mmHg 81%
    11:00 +1°C° 0.2 mm 5 mps 614 mmHg 80%
    12:00 +2°C° 0.2 mm 5 mps 614 mmHg 80%
    13:00 +1°C° 0.6 mm 5 mps 613 mmHg 80%
    14:00 +1°C° 0.6 mm 5 mps 613 mmHg 81%
    15:00 +1°C° 0.6 mm 5 mps 613 mmHg 82%
    16:00 0°C° 0.5 mm 5 mps 613 mmHg 83%
    17:00 0°C° 0.5 mm 5 mps 613 mmHg 83%
    18:00 -1°C° 0.5 mm 5 mps 613 mmHg 84%
    19:00 -1°C° 0.5 mm 5 mps 613 mmHg 85%
    20:00 -2°C° 0.5 mm 4 mps 614 mmHg 86%
    21:00 -2°C° 0.5 mm 4 mps 614 mmHg 86%
    22:00 -2°C° 0.2 mm 4 mps 614 mmHg 86%
    23:00 -2°C° 0.2 mm 4 mps 614 mmHg 86%

    26 March, Tuesday

    Time Temperature Precipitation Wind Pressure Humidity
    00:00 -2°C° 0.2 mm 3 mps 615 mmHg 86%
    01:00 -2°C° 0 mm 3 mps 614 mmHg 86%
    02:00 -4°C° 0 mm 3 mps 614 mmHg 86%
    03:00 -4°C° 0 mm 3 mps 614 mmHg 86%
    04:00 -4°C° 0 mm 3 mps 615 mmHg 86%
    05:00 -3°C° 0 mm 2 mps 615 mmHg 85%
    06:00 -3°C° 0 mm 2 mps 615 mmHg 85%
    07:00 -2°C° 0 mm 3 mps 616 mmHg 83%
    08:00 0°C° 0 mm 3 mps 616 mmHg 81%
    09:00 +1°C° 0 mm 3 mps 616 mmHg 79%
    10:00 +2°C° 0 mm 3 mps 616 mmHg 78%
    11:00 +3°C° 0 mm 3 mps 616 mmHg 77%
    12:00 +3°C° 0 mm 3 mps 616 mmHg 76%
    13:00 +3°C° 0 mm 4 mps 616 mmHg 77%
    14:00 +3°C° 0 mm 4 mps 615 mmHg 77%
    15:00 +3°C° 0 mm 4 mps 615 mmHg 77%
    16:00 +2°C° 0 mm 3 mps 615 mmHg 78%
    17:00 +1°C° 0 mm 3 mps 614 mmHg 79%
    18:00 0°C° 0 mm 3 mps 614 mmHg 80%
    19:00 0°C° 0 mm 3 mps 614 mmHg 81%
    20:00 0°C° 0 mm 3 mps 615 mmHg 83%
    21:00 -1°C° 0 mm 3 mps 615 mmHg 84%
    22:00 -1°C° 0.3 mm 3 mps 615 mmHg 84%
    23:00 -1°C° 0.3 mm 3 mps 616 mmHg 85%

    27 March, Wednesday

    Time Temperature Precipitation Wind Pressure Humidity
    00:00 -1°C° 0.3 mm 2 mps 616 mmHg 85%
    01:00 -1°C° 0.1 mm 2 mps 616 mmHg 85%
    02:00 -1°C° 0.1 mm 2 mps 616 mmHg 85%
    03:00 +1°C° 0.1 mm 1 mps 616 mmHg 84%
    04:00 +1°C° 0 mm 1 mps 616 mmHg 83%
    05:00 +1°C° 0 mm 1 mps 616 mmHg 83%
    06:00 +1°C° 0 mm 1 mps 617 mmHg 82%
    07:00 +2°C° 0 mm 1 mps 617 mmHg 79%
    08:00 +3°C° 0 mm 1 mps 618 mmHg 76%
    09:00 +3°C° 0 mm 2 mps 619 mmHg 72%
    10:00 +4°C° 0 mm 2 mps 619 mmHg 72%
    11:00 +4°C° 0 mm 3 mps 619 mmHg 72%
    12:00 +5°C° 0 mm 3 mps 619 mmHg 72%
    13:00 +5°C° 0.1 mm 3 mps 619 mmHg 72%
    14:00 +5°C° 0.1 mm 3 mps 619 mmHg 71%
    15:00 +7°C° 0.1 mm 3 mps 619 mmHg 70%
    16:00 +5°C° 0.1 mm 3 mps 619 mmHg 69%
    17:00 +6°C° 0.1 mm 2 mps 619 mmHg 68%
    18:00 +6°C° 0.1 mm 2 mps 619 mmHg 67%
    19:00 +5°C° 0.1 mm 2 mps 620 mmHg 68%
    20:00 +5°C° 0.1 mm 2 mps 620 mmHg 70%
    21:00 +5°C° 0.1 mm 1 mps 620 mmHg 72%
    22:00 +5°C° 0.1 mm 1 mps 620 mmHg 73%
    23:00 +5°C° 0.1 mm 1 mps 620 mmHg 75%

    28 March, Thursday

    Time Temperature Precipitation Wind Pressure Humidity
    00:00 +5°C° 0.1 mm 1 mps 620 mmHg 76%
    01:00 +5°C° 0.2 mm 1 mps 620 mmHg 79%
    02:00 +4°C° 0.2 mm 1 mps 620 mmHg 81%
    03:00 +4°C° 0.2 mm 1 mps 620 mmHg 83%
    04:00 +4°C° 0.6 mm 1 mps 620 mmHg 85%
    05:00 +4°C° 0.6 mm 1 mps 620 mmHg 86%
    06:00 +4°C° 0.6 mm 1 mps 620 mmHg 88%
    07:00 +4°C° 1 mm 1 mps 620 mmHg 86%
    08:00 +3°C° 1 mm 2 mps 620 mmHg 85%
    09:00 +4°C° 1 mm 2 mps 621 mmHg 83%
    10:00 +4°C° 0.4 mm 2 mps 620 mmHg 80%
    11:00 +4°C° 0.4 mm 3 mps 620 mmHg 77%
    12:00 +5°C° 0.4 mm 3 mps 620 mmHg 75%
    13:00 +5°C° 0.1 mm 3 mps 620 mmHg 73%
    14:00 +5°C° 0.1 mm 3 mps 620 mmHg 70%
    15:00 +7°C° 0.1 mm 3 mps 620 mmHg 68%
    16:00 +6°C° 0.1 mm 2 mps 620 mmHg 66%
    17:00 +6°C° 0.1 mm 2 mps 619 mmHg 64%
    18:00 +6°C° 0.1 mm 1 mps 619 mmHg 61%
    19:00 +6°C° 0.1 mm 1 mps 619 mmHg 63%
    20:00 +5°C° 0.1 mm 1 mps 620 mmHg 66%
    21:00 +5°C° 0.1 mm 1 mps 620 mmHg 68%
    22:00 +5°C° 0.1 mm 1 mps 619 mmHg 68%
    23:00 +4°C° 0.1 mm 1 mps 619 mmHg 69%
    Show more